星链-34695 (STARLINK-34695)

导读

STARLINK-34695是美国星链星座的成员卫星,星链是SpaceX打造的低轨卫星互联网项目。该卫星于2025年7月26日发射升空,运行在近地轨道,承担为全球提供宽带互联网接入服务的任务,补充完善星链星座的全球覆盖能力与通信容量,支撑星链服务性能提升。

基本信息
目录编号:
64916
目录名称:
STARLINK-34695
国际标识:
2025-157N
轨道中心:
EARTH
卫星名称:
星链-34695
卫星全名:
星链-34695 (STARLINK-34695)
卫星状态:
在轨 (已飞行322 天)
发射日期:
2025-07-26 UTC
国别 :
美国 (US)
星等 :
--
轨道信息
数据来源 国际轨道数据 AOE轨道数据
星历时间 2026-06-13T07:42:31+0800
18小时前
查看轨道信息
2026-06-12T06:00:00+0800
1天前
查看轨道信息
半长轴 6840.785km 6840.843km
偏心率 0.0001301 0.0001398
轨道倾角 53.160° 53.156°
近地点辐角 79.973° 47.528°
升交点赤经 255.267° 260.275°
平近点角 280.142° 152.202°
近地点 461.758km 461.749km
远地点 463.538km 463.663km
周期 93.847分钟 93.848分钟
每日圈数 15.344186 15.343993
详细信息
固有亮度:
5
最大亮度:
2.5
卫星平台:
Starlink V1.0
覆盖范围:
全球
运营商:
太空探索技术公司
运营商所在国:
美国
制造商(研发单位):
太空探索技术公司
制造商所在国:
美国
使用方式:
暂无
卫星简介
Starlink 计划是 SpaceX 推出的全球卫星互联网项目,通过发射低轨道卫星,为全球尤其是偏远地区提供高速、低延迟的互联网服务。自 2019 年起,Starlink 已部署数千颗卫星,旨在缩小全球数字鸿沟,推动互联网普及。该项目还为军事、航空等行业提供通信支持,带来广泛经济效益。
2D轨道图
3D轨道图
轨道高度分析图
轨道倾角分析图
轨道综合分析图
查看轨道综合分析图